FENGYUN 1C DEB

Satellite information

Favourite Embed

Satellite Type and Status

DEBRISIN ORBIT

Key statistics

Satellite FENGYUN 1C DEB at a glance.

Uptime

9498

Days in orbit

Revolutions

≈ 13.9

Per day

Orbit

SSO

Sun Synchronous Orbit

Inclination

102.6

Latest

Satellite identification and parameters

Extended collection of information and parameters for FENGYUN 1C DEB.

Object identification

Identified? True

Debris? True

Object name: FENGYUN 1C DEB

International designator: 1999-025BZL

Object number (NORAD): 31569

Object ID (CCSDS): 31569

Country: PEOPLES REPUBLIC OF CHINA (PRC)

Current information (Y/N): Y

RCS size: SMALL

Orbital parameters

Period: 103.335 minutes

Inclination: 102.6126 deg

SMA: 7294.448 km

Apoapsis: 1049.417 km

Periapsis: 783.208 km

RAAN: 204.9554 deg

Eccentricy: 0.0182474

Argument of periapsis: 168.3734 deg

Mean anomaly: 222.4124 deg

Mean motion: 13.93523036 rev/day

Mean motion (dot): 0.00004165 rev/day2

B* drag term: 0.0028142 1/REarth

Two-line elements (TLE)

Creation date: May 8, 2025, 3:01 a.m.

Reference frame: TEME

Reference center: EARTH

Epoch: May 7, 2025, 4:25 a.m. UTC

TLE line 0: 0 FENGYUN 1C DEB

TLE line 1: 1 31569U 99025BZL 25127.18422618 .00004165 00000-0 28142-2 0 9993

TLE line 2: 2 31569 102.6126 204.9554 0182474 168.3734 222.4124 13.93523036906198

Live tracking on map

Real-time ground track for satellite FENGYUN 1C DEB.

In-orbit conjunctions

A list of the most updated potential collisions computed for object FENGYUN 1C DEB.

Target Orbit TCA Probability of collision Miss distance Type
COSMOS 1802 LEO 2025-01-25 10:52:12 0.00264186 46.0 (m) PAYLOAD
COSMOS 2251 DEB LEO 2024-09-04 01:52:42 0.000143246 201.0 (m) DEBRIS

Associated space launch

Chinese polar orbiting meteorological satellite

FENGYUN 1C DEB was lifted into orbit during the mission ‘Long March 4B | Feng Yun 1C’, on board a Long March 4B space rocket.

The launch took place on May 10, 1999, 1:33 a.m. from Launch Complex 7.

For more information about the launch, click the button.

Launch to space Long March 4B | Feng Yun 1C
Long March 4B | Feng Yun 1C

Agency: N/A

Status: Launch Successful

Launch date: May 10, 1999, 1:33 a.m. UTC

Rocket: Long March 4B

Launch pad: Launch Complex 7

Location: Taiyuan Satellite Launch Center, People's Republic of China

...

Latest news about this satellite

There are no fresh news available about this satellite. Check back as we update our databases every day.


Newsletter sign-up

Weekly statistics, charts and insights to help you stay on top of the space industry.